TimeCST,TemperatureF,Dew PointF,Humidity,Sea Level PressureIn,VisibilityMPH,Wind Direction,Wind SpeedMPH,Gust SpeedMPH,PrecipitationIn,Events,Conditions,WindDirDegrees,DateUTC
12:15 AM,14.0,1.4,57,30.06,10.0,Calm,Calm,-,N/A,,Clear,0,2013-03-04 06:15:00
1:15 AM,14.0,3.2,62,30.07,10.0,Calm,Calm,-,N/A,,Clear,0,2013-03-04 07:15:00
1:35 AM,12.2,3.2,67,30.07,10.0,Calm,Calm,-,N/A,,Clear,0,2013-03-04 07:35:00
1:55 AM,14.0,5.0,67,30.08,10.0,Calm,Calm,-,N/A,,Clear,0,2013-03-04 07:55:00
2:15 AM,14.0,5.0,67,30.08,10.0,Calm,Calm,-,N/A,,Clear,0,2013-03-04 08:15:00
2:35 AM,14.0,5.0,67,30.08,10.0,Calm,Calm,-,N/A,,Clear,0,2013-03-04 08:35:00
2:55 AM,14.0,5.0,67,30.08,10.0,Calm,Calm,-,N/A,,Clear,0,2013-03-04 08:55:00
3:15 AM,12.2,3.2,67,30.09,10.0,East,6.9,-,N/A,,Clear,80,2013-03-04 09:15:00
3:35 AM,10.4,1.4,67,30.09,10.0,East,8.1,-,N/A,,Clear,80,2013-03-04 09:35:00
4:15 AM,10.4,3.2,73,30.09,10.0,East,5.8,-,N/A,,Clear,80,2013-03-04 10:15:00
4:35 AM,10.4,3.2,73,30.09,10.0,East,6.9,-,N/A,,Clear,80,2013-03-04 10:35:00
6:45 AM,10.4,8.6,92,30.09,10.0,East,8.1,-,N/A,,Clear,90,2013-03-04 12:45:00
7:45 AM,12.2,10.4,92,30.10,10.0,East,6.9,-,N/A,,Clear,80,2013-03-04 13:45:00
8:45 AM,15.8,12.2,86,30.09,10.0,East,6.9,-,N/A,,Clear,90,2013-03-04 14:45:00
9:45 AM,19.4,12.2,74,30.09,10.0,East,9.2,-,N/A,,Clear,90,2013-03-04 15:45:00
10:45 AM,23.0,14.0,68,30.09,10.0,ESE,9.2,-,N/A,,Clear,110,2013-03-04 16:45:00
11:45 AM,24.8,14.0,64,30.07,10.0,East,11.5,-,N/A,,Clear,90,2013-03-04 17:45:00
12:45 PM,26.6,12.2,55,30.05,10.0,East,6.9,-,N/A,,Clear,100,2013-03-04 18:45:00
1:45 PM,26.6,10.4,51,30.04,10.0,SE,8.1,-,N/A,,Clear,130,2013-03-04 19:45:00
2:55 PM,28.4,12.2,51,30.04,10.0,ESE,8.1,-,N/A,,Mostly Cloudy,120,2013-03-04 20:55:00
3:50 PM,28.4,10.4,47,30.03,10.0,East,9.2,-,N/A,,Mostly Cloudy,100,2013-03-04 21:50:00
4:50 PM,26.6,12.2,55,30.04,10.0,East,9.2,-,N/A,,Mostly Cloudy,90,2013-03-04 22:50:00
6:47 PM,24.8,12.2,59,30.05,10.0,East,10.4,-,N/A,,Overcast,100,2013-03-05 00:47:00
7:45 PM,24.8,14.0,64,30.05,10.0,East,10.4,-,N/A,,Overcast,90,2013-03-05 01:45:00
8:50 PM,24.8,15.8,69,30.06,10.0,East,12.7,-,N/A,,Overcast,90,2013-03-05 02:50:00
9:15 PM,24.8,15.8,69,30.06,10.0,East,8.1,18.4,N/A,,Overcast,90,2013-03-05 03:15:00
9:35 PM,24.8,15.8,69,30.05,10.0,East,10.4,-,N/A,,Mostly Cloudy,90,2013-03-05 03:35:00
9:50 PM,24.8,15.8,69,30.05,10.0,East,11.5,-,N/A,,Overcast,90,2013-03-05 03:50:00
9:55 PM,24.8,15.8,69,30.05,10.0,East,11.5,-,N/A,,Overcast,90,2013-03-05 03:55:00
10:15 PM,24.8,14.0,64,30.06,10.0,East,9.2,16.1,N/A,,Overcast,100,2013-03-05 04:15:00
10:35 PM,24.8,14.0,64,30.07,10.0,East,8.1,-,N/A,,Overcast,100,2013-03-05 04:35:00
10:55 PM,24.8,12.2,59,30.06,10.0,East,9.2,-,N/A,,Overcast,100,2013-03-05 04:55:00
11:15 PM,24.8,12.2,59,30.06,10.0,East,9.2,-,N/A,,Mostly Cloudy,90,2013-03-05 05:15:00
11:35 PM,24.8,12.2,59,30.07,10.0,ESE,6.9,-,N/A,,Scattered Clouds,110,2013-03-05 05:35:00
11:55 PM,24.8,12.2,59,30.07,10.0,East,10.4,-,N/A,,Mostly Cloudy,90,2013-03-05 05:55:00